This demonstration page uses our WeatherBlox Daily Observations layout. Learn more.

Left ArrowRight Arrow

Hourly Observations for May 2, 2015

Temp ( °F °C ) Dew Point ( °F °C ) Humidity (%) Winds ( mph kmh ) Pressure ( in mb ) Visibility ( mi km ) Precip ( " mm )
12:53 am 00:53 Clear 51 10.6 30 -1.1 44 44 W 10 17 29.70 1006 10 16 0.00 0.00
1:53 am 01:53 Clear 52 11.1 30 -1.1 43 43 W 9 15 29.70 1006 10 16 0.00 0.00
2:53 am 02:53 Clear 48 8.9 32 0 54 54 Calm 29.70 1006 10 16 0.00 0.00
3:53 am 03:53 Clear 47 8.3 30 -1.1 52 52 NNW 6 9 29.69 1005 10 16 0.00 0.00
4:53 am 04:53 Clear 40 4.4 30 -1.1 68 68 SSW 8 13 29.70 1006 10 16 0.00 0.00
5:53 am 05:53 Clear 39 3.9 30 -1.1 70 70 W 5 7 29.73 1007 10 16 0.00 0.00
6:53 am 06:53 Partly Cloudy 38 3.3 31 -0.6 76 76 Calm 29.75 1007 10 16 0.00 0.00
7:53 am 07:53 Sunny 47 8.3 34 1.1 61 61 ENE 7 11 29.73 1007 10 16 0.00 0.00
8:53 am 08:53 Mostly Cloudy 51 10.6 35 1.7 54 54 ENE 6 9 29.75 1007 10 16 0.00 0.00
9:53 am 09:53 Mostly Sunny 56 13.3 37 2.8 49 49 ENE 6 9 29.75 1008 10 16 0.00 0.00
10:53 am 10:53 Sunny 60 15.6 36 2.2 41 41 N 7 11 29.75 1008 10 16 0.00 0.00
11:53 am 11:53 Sunny 64 17.8 36 2.2 35 35 VRB 7 11 29.76 1008 10 16 0.00 0.00
12:53 pm 12:53 Sunny 64 17.8 36 2.2 35 35 undefined N/A 29.77 1008 10 16 0.00 0.00
1:53 pm 13:53 Sunny 63 17.2 38 3.3 40 40 N 21 33 29.78 1009 10 16 0.00 0.00
2:53 pm 14:53 Sunny 60 15.6 37 2.8 42 42 NNE 17 28 29.81 1010 10 16 0.00 0.00
3:53 pm 15:53 Sunny 62 16.7 35 1.7 37 37 N 16 26 29.81 1010 10 16 0.00 0.00
4:53 pm 16:53 Partly Cloudy 60 15.6 34 1.1 38 38 N 13 20 29.83 1010 10 16 0.00 0.00
5:53 pm 17:53 Sunny 60 15.6 31 -0.6 33 33 NNW 21 33 29.85 1011 10 16 0.00 0.00
6:53 pm 18:53 Mostly Cloudy 59 15 32 0 36 36 NNW 14 22 29.87 1011 10 16 0.00 0.00
7:53 pm 19:53 Sunny 55 12.8 29 -1.7 37 37 NNW 16 26 29.88 1012 10 16 0.00 0.00
8:53 pm 20:53 Cloudy 52 11.1 27 -2.8 38 38 N 16 26 29.91 1013 10 16 0.00 0.00
9:53 pm 21:53 Cloudy 51 10.6 28 -2.2 41 41 N 9 15 29.95 1014 10 16 0.00 0.00
10:53 pm 22:53 Cloudy 50 10 26 -3.3 39 39 NNW 7 11 29.96 1015 10 16 0.00 0.00
11:53 pm 23:53 Cloudy 49 9.4 26 -3.3 41 41 NNW 7 11 29.97 1015 10 16 0.00 0.00

Powered by AerisWeather